Location: Peasmarsh
(50.9667°N, 0.6833°E)
Time: 21:54:16
(UTC+00:00)

Daily predictions for brighter satellites

Satellite Brightness Start Highest point End
(mag) Time Altitude Azimuth Time Altitude Azimuth Time Altitude Azimuth
Cosmos 1656 4.1 16:22:58 10° NNW 16:28:08 39° NE 16:33:20 10° ESE
USA 305 3.4 16:24:34 10° SW 16:28:40 52° SSE 16:32:47 10° ENE
USA 267 3.5 16:22:45 10° ENE 16:29:18 69° SE 16:35:48 10° SW
Cosmos 2237 Rocket 4.3 16:26:37 10° WNW 16:29:50 15° NNW 16:33:03 10° N
CZ-4C R/B 3.3 16:26:47 10° NNE 16:30:51 72° ESE 16:34:39 10° S
CZ-2C R/B 2.9 16:27:17 10° SSE 16:32:11 63° ENE 16:36:57 10° N
Cosmos 1340 Rocket 3.9 16:31:38 10° NNE 16:34:57 24° ENE 16:38:16 10° ESE
USA 229 DEB 4.1 16:29:11 10° NW 16:36:04 49° NNE 16:43:26 10° ESE
USA 229 4.2 16:29:16 10° NW 16:36:09 49° NNE 16:43:31 10° ESE
ADEOS 3.9 16:31:21 10° S 16:36:33 73° WSW 16:41:49 10° NNW
Cosmos 2233 Rocket 4.2 16:32:43 10° SSW 16:38:53 79° WNW 16:45:09 10° N
Meteor 1-31 Rocket 4.0 16:35:49 10° S 16:39:27 45° W 16:43:09 10° NNW
Lacrosse 5 rocket 2.0 16:38:01 10° W 16:41:32 37° N 16:45:14 10° ENE
Cosmos 1603 4.4 16:38:36 10° SW 16:44:14 54° NW 16:49:55 10° NNE
USA 276 2.2 16:41:08 10° W 16:44:15 74° S 16:47:23 10° E
ATLAS 2AS CENTAUR R/B 3.5 16:36:48 10° WSW 16:44:29 55° NW 16:51:52 10° NE
SL-16 R/B 4.0 16:40:37 10° W 16:45:01 22° NW 16:49:25 10° NNE
Cosmos-2242 3.5 16:42:10 10° SSW 16:46:26 63° WNW 16:50:42 10° N
ATLAS CENTAUR R/B 4.4 16:38:20 10° S 16:46:30 25° SE 16:50:49 10° E
SJ 16-02 1.3 16:44:25 10° NNW 16:48:49 88° ENE 16:53:12 10° SSE
Okean 3 Rocket 3.6 16:47:44 10° N 16:52:18 89° ENE 16:56:47 10° S
Cosmos 1500 Rocket 4.3 16:48:53 10° N 16:52:56 32° ENE 16:56:56 10° SE
RESURS DK-1 4.2 16:50:46 10° W 16:54:11 24° NW 16:57:37 10° NNE
Cosmos 2034 Rocket 4.4 16:50:35 10° SSE 16:56:17 41° E 17:02:00 10° NNE
MOS 1 Rocket 4.4 16:51:22 10° N 16:56:26 51° WNW 17:01:10 10° SW
SeaSat 1 4.2 16:54:07 10° NNE 16:58:08 25° NW 17:02:08 10° W
NOSS 3-1 (A) 4.0 16:52:36 10° NW 16:59:38 62° NE 17:08:01 10° ESE
USA 306 2.9 16:56:12 10° WSW 17:00:27 75° SSE 17:04:00 14° ENE
CORIOLIS 4.2 16:55:46 10° SSE 17:01:05 64° ENE 17:06:28 10° N
Spot 1 4.2 16:56:39 10° NNE 17:01:11 83° ESE 17:05:59 10° SSW
NOSS 2-1 (C) 2.7 16:58:04 10° SW 17:01:18 79° SE 17:04:08 14° NE
CZ-2D R/B 3.8 16:59:01 10° SE 17:02:32 35° ENE 17:06:04 10° N
NOSS 3-1 (C) 4.0 16:55:38 10° NW 17:02:52 84° NE 17:11:30 10° SE
Cosmos 1805 Rocket 4.5 17:00:03 10° N 17:03:43 26° ENE 17:07:21 10° SE
Cosmos 1943 4.3 16:59:17 10° WSW 17:04:34 40° NW 17:09:52 10° NNE
USA 234 4.1 16:58:18 10° SE 17:04:42 54° SW 17:11:06 10° WNW
SL-08 R/B 3.5 16:59:54 10° NNE 17:04:42 77° WNW 17:09:22 10° SSW
Iridium 2 3.8 17:01:02 10° N 17:04:49 77° W 17:08:33 10° S
Aureole 3 4.5 17:00:55 10° S 17:06:32 83° E 17:13:31 10° NNE
Cosmos 1842 Rocket 3.8 17:03:34 10° SSE 17:07:52 50° E 17:12:12 10° NNE
Cosmos 1833 Rocket 3.9 17:05:03 10° SSE 17:09:09 21° E 17:11:51 15° ENE
NOSS 2-1 (D) 2.8 17:07:23 10° SW 17:10:36 84° NW 17:13:12 16° NE
Meteor 2-2 Rocket 4.4 17:05:24 10° S 17:11:25 75° E 17:17:25 10° NNE
PSLV R/B 3.7 17:10:49 10° SSE 17:14:24 54° ENE 17:18:02 10° N
Sich 1 3.9 17:11:19 10° N 17:14:56 26° ENE 17:18:33 10° SE
CZ-4B R/B 3.5 17:09:52 10° SE 17:14:58 43° ENE 17:20:01 10° N
Cosmos 1862 4.5 17:12:34 10° NNW 17:16:24 46° W 17:20:13 10° SSW
USA 307 2.9 17:12:37 10° WSW 17:16:55 83° SSE 17:19:51 20° ENE
ERBS 2.5 17:14:38 10° SW 17:17:46 51° SE 17:19:27 23° ENE
Cosmos 1939 Rocket 3.1 17:13:54 10° S 17:18:02 79° WSW 17:22:10 10° NNW
Cosmos 1898 Rocket 3.7 17:13:26 10° NNW 17:18:34 47° ENE 17:23:36 10° SE
SMAP 3.1 17:14:10 10° SSE 17:18:49 85° WSW 17:23:31 10° NNW
ARGOS 3.6 17:14:20 10° SE 17:19:17 37° ENE 17:24:14 10° N
Cosmos 1606 2.6 17:16:26 10° S 17:20:12 89° ENE 17:24:01 10° N
MOS 1-B Rocket 4.5 17:15:07 10° NNE 17:20:26 38° E 17:26:12 10° SSE
H-2A R/B 2.1 17:15:44 10° SE 17:20:49 56° ENE 17:25:49 10° N
COSMOS 2455 4.3 17:22:06 10° SE 17:25:28 16° ESE 17:25:53 15° E
ATLAS CENTAUR R/B 2.1 17:21:45 10° WSW 17:25:51 53° NW 17:29:27 15° NNE
Cosmos 44 3.3 17:22:09 10° NW 17:27:03 79° SW 17:31:36 10° SSE
Cosmos 2221 2.4 17:23:12 10° S 17:27:27 87° E 17:31:47 10° N
COSMO-SKYMED 1 3.4 17:29:13 21° NE 17:31:16 30° E 17:35:06 10° SSE
Cosmos 2026 Rocket 4.1 17:27:16 10° N 17:33:20 52° ENE 17:39:15 10° SSE
Cosmos 2195 Rocket 4.4 17:29:23 10° N 17:35:30 62° ENE 17:41:36 10° SSE
Cosmos 540 Rocket 4.4 17:32:09 10° SSE 17:36:15 25° E 17:37:03 24° E
SL-08 RB Rocket 4.3 17:33:00 10° SE 17:37:11 34° ENE 17:41:20 10° N
deb Chang Zheng 4 3.6 17:33:18 10° SE 17:37:30 54° ENE 17:41:44 10° N
CZ-2C R/B 3.0 17:32:51 11° NNE 17:37:31 38° E 17:42:19 10° SSE
USA 308 2.9 17:34:53 10° WSW 17:39:09 82° NNW 17:41:12 30° ENE
Cosmos 1500 3.8 17:36:00 10° N 17:39:27 33° ENE 17:40:06 30° E
Cosmos 2360 Rocket 4.0 17:37:58 10° N 17:40:40 13° NNE 17:41:19 13° NNE
SJ-11-01 4.4 17:36:27 10° SE 17:41:02 50° ENE 17:45:39 10° N
Okean O Rocket 1.8 17:37:28 10° SE 17:41:46 50° ENE 17:46:06 10° N
Meteor 1-25 Rocket 4.1 17:36:56 10° N 17:42:31 75° ENE 17:48:06 10° SSE
ISS -3.8 17:40:32 10° W 17:43:57 77° N 17:44:55 43° ENE
Meteor 2-21 4.4 17:38:50 10° N 17:44:52 57° ENE 17:50:49 10° SSE
CZ-4C R/B 3.1 17:38:43 10° NW 17:45:08 47° NNE 17:49:48 23° E
YAOGAN 1 3.4 17:50:23 30° NE 17:50:23 30° NE 17:53:35 10° N
Cosmos 1461 4.4 17:48:56 10° W 17:52:39 30° NW 17:54:58 18° NNE
MOS 1-B 4.4 17:47:59 10° SSE 17:53:46 80° WSW 17:59:35 10° NNW
Cosmos 2084 3.4 17:52:26 10° NW 17:56:43 87° SW 17:59:41 21° SE
Cosmos 2322 Rocket 3.7 17:53:43 10° NNW 17:57:36 19° NNE 17:57:36 19° NNE
Cosmos 2369 3.7 17:52:12 10° NNW 17:57:53 60° NE 18:02:24 16° SE
CZ-4 R/B 3.0 18:00:22 21° NNE 18:00:22 21° NNE 18:02:03 10° N
Cosmos 1743 Rocket 4.0 17:56:12 10° NNW 18:00:30 63° W 18:04:46 10° S
GEOS 3 Rocket 3.6 17:57:10 10° SE 18:02:26 86° SW 18:07:39 10° NW
Cosmos 1782 3.1 17:59:04 10° SSE 18:02:36 46° ESE 18:02:36 46° ESE
Cosmos 1697 Rocket 2.6 18:00:29 10° NNW 18:06:08 88° WSW 18:11:46 10° SSE
Cosmos 1937 Rocket 3.4 18:01:08 10° NNW 18:06:30 80° ENE 18:11:49 10° SSE
NOSS 2-2 (C) 4.1 18:03:09 10° NW 18:07:56 65° NE 18:10:59 30° ESE
Cosmos 1980 Rocket 2.2 18:02:31 10° NNW 18:08:08 57° NE 18:10:40 31° ESE
USA 305 3.0 18:04:19 10° W 18:08:32 64° NNW 18:09:22 51° NE
Cosmos 1763 Rocket 3.3 18:03:52 10° SSW 18:08:55 73° ESE 18:11:17 32° NNE
NOSS 2-1 (E) 4.3 18:07:40 10° W 18:10:37 31° NNW 18:11:22 28° N
Cosmos 841 Rocket 4.1 18:05:58 10° S 18:10:09 36° ESE 18:10:09 36° ESE
Cosmos 1340 Rocket 4.3 18:07:44 10° NNW 18:11:31 38° W 18:15:18 10° SSW
Cosmos 2333 Rocket 4.2 18:08:54 10° N 18:11:34 14° NNE 18:11:34 14° NNE
Cosmos 1666 Rocket 3.8 18:07:42 10° N 18:11:32 48° NE 18:11:32 48° NE
SL-16 R/B 3.3 18:07:32 10° NNW 18:11:40 25° NNE 18:11:40 25° NNE
USA 267 3.5 18:08:54 29° NE 18:12:19 63° NNW 18:18:45 10° W
Meteor 2-14 Rocket 4.3 18:06:40 10° N 18:12:50 87° E 18:18:56 10° S
H-2A R/B 4.4 18:22:08 16° N 18:22:08 16° N 18:23:01 10° N
SKYMED 2 3.4 18:17:50 37° NNE 18:19:31 85° ESE 18:23:52 10° SSW
Spot 2 4.4 18:14:31 10° SSE 18:19:34 64° ENE 18:24:41 10° N
Cosmos 2082 Rocket 3.0 18:14:35 10° S 18:18:33 32° SE 18:18:33 32° SE
USA 276 3.4 18:17:12 10° W 18:19:58 35° SSW 18:19:58 35° SSW
Lacrosse 5 rocket 2.2 18:17:40 10° WNW 18:20:53 36° N 18:20:53 36° N
Cosmos 1602 4.3 18:17:41 10° NNW 18:21:28 56° W 18:25:14 10° S
Cosmos 1092 Rocket 4.4 18:15:20 10° NNW 18:21:38 66° W 18:27:53 10° S
IRS-1C Rocket 4.4 18:23:27 45° NE 18:23:27 45° NE 18:27:56 10° N
Cosmos 2278 3.7 18:18:19 10° NNW 18:23:57 56° NE 18:24:47 51° E
COSMOS 2406 3.2 18:19:22 10° S 18:25:00 59° ESE 18:26:02 51° ENE
Cosmos 1933 3.6 18:21:28 10° SSW 18:25:31 66° WNW 18:27:10 34° N
USA 229 DEB 4.3 18:20:12 10° NW 18:27:25 65° SW 18:35:05 10° SSE
USA 229 4.2 18:20:18 10° NW 18:27:31 66° SW 18:35:11 10° SSE
Meteor 2-21 Rocket 4.3 18:22:57 10° N 18:29:08 87° E 18:35:13 10° S
Cosmos 1818 4.1 18:26:05 10° NW 18:31:00 42° NNE 18:31:00 42° NNE
Feng Yun 1-1 Rocket 4.3 18:25:49 10° SSE 18:31:46 88° ENE 18:37:42 10° NNW
Cosmos 372 Rocket 3.8 18:28:10 10° NNW 18:33:26 85° ENE 18:35:14 43° SSE
ATLAS 2AS CENTAUR R/B 4.0 18:30:15 10° WNW 18:37:02 32° N 18:39:54 25° NNE
Cosmos 2142 Rocket 4.3 18:32:25 10° S 18:38:32 75° E 18:44:44 10° NNE
Meteor 1-26 Rocket 4.3 18:34:19 10° SSW 18:40:16 84° WNW 18:45:47 13° NNE
USA 306 3.4 18:36:17 10° W 18:40:00 53° NW 18:40:00 53° NW
Cosmos 44 Rocket 4.3 18:41:57 10° NW 18:45:19 35° N 18:45:19 35° N
Cosmos 1833 Rocket 2.7 18:46:51 10° SW 18:52:29 76° WNW 18:53:36 57° N
Sich 1 4.4 18:48:45 10° NNW 18:52:43 37° W 18:56:40 10° SSW
Meteor 1-14 Rocket 4.5 18:50:44 10° NNW 18:56:27 70° W 19:02:17 10° S
Cosmos 2279 Rocket 3.9 18:50:27 10° S 18:56:41 88° W 19:01:21 19° N
USA 307 4.0 18:52:47 10° W 18:55:53 42° WNW 18:55:53 42° WNW
Cosmos 2219 Rocket 4.3 18:54:45 10° N 18:56:17 14° N 18:56:17 14° N
Cosmos 2266 Rocket 4.0 18:52:31 10° N 18:58:09 64° NE 18:58:09 64° NE
ARGOS 4.4 18:54:26 10° SSW 18:59:32 41° W 19:04:38 10° NNW
H-2A R/B 4.2 18:56:20 10° SSW 19:00:35 25° W 19:04:45 10° NW
NOSS 2-2 (D) 4.5 18:56:20 10° NW 19:01:22 68° SW 19:02:49 51° S
ATLAS CENTAUR R/B 3.7 19:02:33 10° WNW 19:05:34 19° NNW 19:05:34 19° NNW
COSMO-SKYMED 1 4.0 19:06:26 31° NW 19:07:28 35° WNW 19:11:25 10° SW
Cosmos 1655 Rocket 3.9 19:03:38 10° N 19:09:57 85° NE 19:09:57 85° NE
COSMOS 2455 3.2 19:04:24 10° SSW 19:09:04 55° S 19:09:04 55° S
Cosmos 540 Rocket 4.1 19:12:29 10° SW 19:16:55 52° W 19:16:55 52° W
CZ-2C R/B 3.9 19:14:22 17° N 19:17:49 37° WNW 19:22:33 10° SW
ATLAS CENTAUR R/B 3.1 19:10:52 10° WSW 19:16:49 51° WSW 19:16:49 51° WSW
Okean O Rocket 4.0 19:14:55 10° SW 19:18:23 22° W 19:21:54 10° NW
ISS -0.4 19:17:25 10° W 19:17:54 13° W 19:17:54 13° W
Cosmos 2360 Rocket 4.1 19:21:12 10° NNW 19:23:05 20° N 19:23:05 20° N
CZ-4 R/B 4.3 19:36:21 13° NW 19:36:21 13° NW 19:36:54 10° NW
CZ-4C R/B 3.0 19:27:09 10° NW 19:34:14 71° SW 19:35:01 66° SSW
Cosmos 2322 Rocket 4.0 19:37:14 10° NNW 19:39:25 24° NNW 19:39:25 24° NNW
Cosmos 1980 Rocket 3.8 19:46:59 10° NW 19:51:50 30° WSW 19:52:30 29° WSW
USA 267 4.0 19:56:15 46° NW 19:56:15 46° NW 20:01:13 10° WNW
SL-16 R/B 4.0 19:51:19 10° NNW 19:53:32 25° NNW 19:53:32 25° NNW
Cosmos 2082 Rocket 4.0 19:58:04 10° SW 20:00:28 25° WSW 20:00:28 25° WSW
ATLAS 2AS CENTAUR R/B 4.3 20:23:10 10° NW 20:27:19 28° NNW 20:27:19 28° NNW
